Date String (YYYY-MM-DD hh:mm:ss) UTC,Instrument flags,Ambient pressure (hPa),Sample flow (lpm),Bypass flow (lpm),Sample temperature (°C),Ambient temperature (°C),ASC tube jacket temperature (°C),LED temperature (°C),Box temperature (°C),Sample RH (%),Span deviation,Mass concentration (μg/m³),Mass concentration (μg/m³),Mass concentration (μg/m³)
DateTimeUTC,F1_M11,P_M11,Q1_M11,Q2_M11,T1_M11,T2_M11,T3_M11,T4_M11,T5_M11,U1_M11,ZSPAN_M11,X0_M11,X2_M11,X1_M11
2021-10-04 08:00:00,,0832.3,5.00,0.00,30.2,29.0,00.0,39.4,31.8,10.4,0000.0,0004.67,0003.14,0002.70
2021-10-04 08:01:00,,0832.2,5.00,0.00,30.2,29.0,00.0,39.4,31.8,10.4,0000.0,0004.56,0003.15,0002.70
2021-10-04 08:02:00,,0832.2,4.99,0.00,30.2,29.0,00.0,39.4,31.9,10.5,0000.0,0004.63,0003.15,0002.69
2021-10-04 08:03:00,,0832.3,5.01,0.00,30.2,29.0,00.0,39.4,31.9,10.4,0000.0,0004.67,0003.15,0002.69
2021-10-04 08:04:00,,0832.3,5.01,0.00,30.2,29.1,00.0,39.4,31.9,10.4,0000.0,0004.70,0003.16,0002.68
2021-10-04 08:05:00,,0832.3,5.00,0.00,30.2,29.1,00.0,39.4,31.9,10.4,0000.0,0004.73,0003.17,0002.68
2021-10-04 08:06:00,,0832.3,4.99,0.00,30.2,29.1,00.0,39.4,31.9,10.4,0000.0,0004.81,0003.19,0002.69
2021-10-04 08:07:00,,0832.2,4.98,0.00,30.2,29.1,00.0,39.4,31.9,10.4,0000.0,0004.89,0003.21,0002.71
2021-10-04 08:08:00,,0832.3,5.00,0.00,30.2,29.2,00.0,39.4,31.8,10.4,0000.0,0004.93,0003.23,0002.74
2021-10-04 08:09:00,,0832.2,5.00,0.00,30.2,29.1,00.0,39.4,31.9,10.4,0000.0,0005.20,0003.23,0002.76
2021-10-04 08:10:00,,0832.2,5.00,0.00,30.2,29.1,00.0,39.4,31.9,10.4,0000.0,0005.77,0003.24,0002.78
2021-10-04 08:11:00,,0832.2,5.00,0.00,30.2,29.1,00.0,39.4,31.9,10.4,0000.0,0005.82,0003.25,0002.80
2021-10-04 08:12:00,,0832.1,5.00,0.00,30.2,29.1,00.0,39.4,31.8,10.4,0000.0,0006.07,0003.31,0002.83
2021-10-04 08:13:00,,0832.1,5.00,0.00,30.2,29.1,00.0,39.4,31.8,10.4,0000.0,0006.07,0003.32,0002.83
2021-10-04 08:14:00,,0832.1,5.00,0.00,30.2,29.1,00.0,39.3,31.8,10.5,0000.0,0006.25,0003.35,0002.84
2021-10-04 08:15:00,,0832.1,5.01,0.00,30.2,29.1,00.0,39.3,31.8,10.5,0000.0,0006.49,0003.37,0002.87
2021-10-04 08:16:00,,0832.1,5.00,0.00,30.2,29.1,00.0,39.4,31.9,10.5,0000.0,0006.83,0003.38,0002.88
2021-10-04 08:17:00,,0832.1,5.01,0.00,30.2,29.1,00.0,39.3,31.9,10.4,0000.0,0007.02,0003.38,0002.88
2021-10-04 08:18:00,,0832.1,5.01,0.00,30.2,29.1,00.0,39.3,31.8,10.4,0000.0,0007.07,0003.39,0002.89
2021-10-04 08:19:00,,0832.1,5.00,0.00,30.2,29.1,00.0,39.3,31.8,10.5,0000.0,0007.23,0003.42,0002.90
2021-10-04 08:20:00,,0832.1,4.99,0.00,30.2,29.0,00.0,39.3,31.8,10.4,0000.0,0006.90,0003.41,0002.89
2021-10-04 08:21:00,,0832.1,5.00,0.00,30.2,29.0,00.0,39.3,31.9,10.4,0000.0,0006.29,0003.40,0002.88
2021-10-04 08:22:00,,0832.1,5.01,0.00,30.2,29.0,00.0,39.3,31.8,10.5,0000.0,0006.36,0003.40,0002.88
2021-10-04 08:23:00,,0832.1,5.00,0.00,30.2,29.0,00.0,39.3,31.8,10.4,0000.0,0006.18,0003.35,0002.87
2021-10-04 08:24:00,,0832.0,4.99,0.00,30.1,29.0,00.0,39.3,31.7,10.4,0000.0,0006.07,0003.33,0002.87
2021-10-04 08:25:00,,0832.0,4.99,0.00,30.1,29.0,00.0,39.3,31.8,10.4,0000.0,0006.01,0003.32,0002.88
2021-10-04 08:26:00,,0832.1,5.00,0.00,30.1,29.0,00.0,39.3,31.8,10.4,0000.0,0006.03,0003.33,0002.89
2021-10-04 08:27:00,,0832.1,5.00,0.00,30.1,29.0,00.0,39.3,31.8,10.5,0001.6,0005.78,0003.32,0002.89
2021-10-04 08:28:00,,0832.0,5.00,0.00,30.1,29.0,00.0,39.3,31.8,10.5,0002.5,0006.07,0003.35,0002.89
2021-10-04 08:29:00,,0832.0,5.00,0.00,30.1,29.0,00.0,39.3,31.8,10.5,0002.2,0006.52,0003.36,0002.89
2021-10-04 08:30:00,,0832.1,5.00,0.00,30.1,29.1,00.0,39.3,31.8,10.5,0001.4,0006.30,0003.32,0002.90
2021-10-04 08:31:00,,0832.1,4.99,0.00,30.1,29.1,00.0,39.3,31.7,10.5,0000.9,0006.33,0003.34,0002.90
2021-10-04 08:32:00,,0832.1,5.02,0.00,30.1,29.1,00.0,39.3,31.8,10.5,0000.4,0006.55,0003.37,0002.92
2021-10-04 08:33:00,,0832.1,5.01,0.00,30.1,29.0,00.0,39.3,31.8,10.5,0000.0,0006.62,0003.39,0002.93
2021-10-04 08:34:00,,0832.1,5.01,0.00,30.1,29.1,00.0,39.3,31.8,10.4,0000.0,0006.63,0003.40,0002.94
2021-10-04 08:35:00,,0832.1,5.00,0.00,30.1,29.0,00.0,39.3,31.7,10.4,0000.0,0006.91,0003.41,0002.96
2021-10-04 08:36:00,,0832.1,4.99,0.00,30.1,29.0,00.0,39.3,31.7,10.4,0000.0,0007.30,0003.42,0002.96
2021-10-04 08:37:00,,0832.1,5.01,0.00,30.1,29.1,00.0,39.3,31.7,10.4,0000.0,0007.14,0003.41,0002.96
2021-10-04 08:38:00,,0832.1,5.01,0.00,30.1,29.0,00.0,39.3,31.8,10.4,0000.0,0007.30,0003.42,0002.96
2021-10-04 08:39:00,,0832.1,5.00,0.00,30.1,29.0,00.0,39.3,31.8,10.4,0000.0,0007.36,0003.40,0002.95
2021-10-04 08:40:00,,0832.1,5.00,0.00,30.1,29.0,00.0,39.3,31.8,10.4,0000.0,0007.01,0003.39,0002.94
2021-10-04 08:41:00,,0832.1,4.99,0.00,30.1,29.0,00.0,39.3,31.7,10.4,0000.0,0007.02,0003.38,0002.91
2021-10-04 08:42:00,,0832.1,5.01,0.00,30.1,29.0,00.0,39.3,31.8,10.4,0000.0,0007.12,0003.39,0002.91
2021-10-04 08:43:00,,0832.1,4.99,0.00,30.1,29.0,00.0,39.3,31.8,10.4,0000.0,0007.11,0003.38,0002.90
2021-10-04 08:44:00,,0832.1,4.99,0.00,30.1,29.0,00.0,39.3,31.8,10.4,0000.0,0007.14,0003.37,0002.89
2021-10-04 08:45:00,,0832.1,5.00,0.00,30.1,29.0,00.0,39.3,31.7,10.4,0000.0,0007.09,0003.35,0002.88
2021-10-04 08:46:00,,0832.1,5.02,0.00,30.1,29.0,00.0,39.3,31.8,10.4,0000.0,0006.93,0003.35,0002.88
2021-10-04 08:47:00,,0832.1,5.00,0.00,30.1,29.0,00.0,39.3,31.7,10.4,0000.0,0007.36,0003.34,0002.86
2021-10-04 08:48:00,,0832.0,5.00,0.00,30.1,29.0,00.0,39.3,31.7,10.4,0000.0,0007.51,0003.34,0002.84
2021-10-04 08:49:00,,0832.1,4.99,0.00,30.1,28.9,00.0,39.3,31.8,10.4,0000.0,0007.53,0003.36,0002.84
2021-10-04 08:50:00,,0832.1,5.00,0.00,30.1,28.9,00.0,39.3,31.8,10.4,0000.0,0007.20,0003.36,0002.83
2021-10-04 08:51:00,,0832.1,5.00,0.00,30.1,29.0,00.0,39.3,31.8,10.4,0000.0,0007.26,0003.36,0002.82
2021-10-04 08:52:00,,0832.1,5.00,0.00,30.1,29.0,00.0,39.3,31.8,10.4,0000.0,0007.61,0003.37,0002.82
2021-10-04 08:53:00,,0832.1,5.01,0.00,30.1,29.0,00.0,39.3,31.8,10.4,0000.0,0007.53,0003.34,0002.83
2021-10-04 08:54:00,,0832.1,5.00,0.00,30.1,29.0,00.0,39.3,31.7,10.4,0000.0,0007.73,0003.33,0002.83
2021-10-04 08:55:00,,0832.1,5.00,0.00,30.1,29.0,00.0,39.3,31.7,10.3,-000.2,0007.86,0003.33,0002.83
2021-10-04 08:56:00,,0832.1,4.99,0.00,30.1,29.0,00.0,39.3,31.8,10.3,0000.0,0007.84,0003.33,0002.84
2021-10-04 08:57:00,,0832.1,5.00,0.00,30.1,29.0,00.0,39.3,31.7,10.3,0000.0,0007.86,0003.34,0002.85
2021-10-04 08:58:00,,0832.1,5.00,0.00,30.1,29.0,00.0,39.2,31.7,10.3,0000.0,0007.77,0003.34,0002.86
2021-10-04 08:59:00,,0832.0,5.01,0.00,30.1,28.9,00.0,39.2,31.7,10.3,0000.0,0007.75,0003.33,0002.86
